RCF1303 UUDD-URSS

Flight info

Callsign RCF1303
Flight time N/A
Altitude 35000
Route LINRU4N LINRU L4 EKTUT N72 UMSIS N166 ADNET W79 BINOL BINOL1K
Aircraft MD11/H-SDE1E2E3FGHIJ2J3J4J5M1RWXY/LB1D1

Departure

Time 2026-05-06 21:46
Airport Domodedovo International Airport (UUDD)

Arrival

Time N/A
Airport Sochi International Airport (URSS)
Time Latitude Longitude Altitude Speed Heading
2026-05-06 21:11 55.41270 37.90355 602 ft 0 kts
2026-05-06 21:32 55.41263 37.90354 602 ft 2 kts
2026-05-06 21:32 55.41248 37.90352 602 ft 2 kts
2026-05-06 21:33 55.41233 37.90350 602 ft 2 kts
2026-05-06 21:33 55.41219 37.90348 602 ft 2 kts
2026-05-06 21:33 55.41209 37.90346 602 ft 2 kts
2026-05-06 21:33 55.41194 37.90351 602 ft 2 kts 337°
2026-05-06 21:34 55.41178 37.90362 602 ft 1 kts 321°
2026-05-06 21:34 55.41168 37.90382 602 ft 2 kts 311°
2026-05-06 21:34 55.41160 37.90405 602 ft 2 kts 283°
2026-05-06 21:34 55.41156 37.90433 602 ft 2 kts 276°
2026-05-06 21:35 55.41158 37.90459 602 ft 2 kts 258°
2026-05-06 21:35 55.41162 37.90483 602 ft 1 kts 231°
2026-05-06 21:35 55.41169 37.90498 602 ft 1 kts 237°
2026-05-06 21:38 55.41159 37.90470 602 ft 6 kts 237°
2026-05-06 21:38 55.41123 37.90375 602 ft 11 kts 237°
2026-05-06 21:38 55.41089 37.90284 602 ft 6 kts 234°
2026-05-06 21:38 55.41084 37.90272 602 ft 0 kts 231°
2026-05-06 21:39 55.41050 37.90252 602 ft 9 kts 164°
2026-05-06 21:39 55.41038 37.90341 602 ft 0 kts 51°
2026-05-06 21:39 55.41047 37.90373 602 ft 7 kts 67°
2026-05-06 21:39 55.41058 37.90442 602 ft 3 kts 105°
2026-05-06 21:40 55.41048 37.90511 602 ft 11 kts 101°
2026-05-06 21:40 55.41079 37.90678 602 ft 18 kts 57°
2026-05-06 21:40 55.41158 37.90886 602 ft 22 kts 55°
2026-05-06 21:40 55.41249 37.91125 602 ft 25 kts 56°
2026-05-06 21:41 55.41293 37.91244 602 ft 1 kts 72°
2026-05-06 21:41 55.41293 37.91299 602 ft 5 kts 103°
2026-05-06 21:41 55.41256 37.91396 602 ft 24 kts 129°
2026-05-06 21:41 55.41124 37.91652 602 ft 29 kts 134°
2026-05-06 21:42 55.40968 37.91911 602 ft 31 kts 140°
2026-05-06 21:42 55.40781 37.92131 602 ft 33 kts 146°
2026-05-06 21:42 55.40583 37.92373 602 ft 35 kts 143°
2026-05-06 21:42 55.40374 37.92616 602 ft 37 kts 146°
2026-05-06 21:43 55.40163 37.92888 602 ft 38 kts 140°
2026-05-06 21:43 55.40015 37.93067 602 ft 16 kts 157°
2026-05-06 21:43 55.39904 37.93184 602 ft 21 kts 146°
2026-05-06 21:43 55.39764 37.93354 602 ft 27 kts 145°
2026-05-06 21:44 55.39653 37.93501 602 ft 8 kts 130°
2026-05-06 21:44 55.39629 37.93683 602 ft 23 kts 94°
2026-05-06 21:44 55.39595 37.93842 602 ft 11 kts 143°
2026-05-06 21:44 55.39528 37.94053 602 ft 24 kts 83°
2026-05-06 21:45 55.39578 37.94304 602 ft 21 kts 77°
2026-05-06 21:45 55.39645 37.94476 602 ft 5 kts 21°
2026-05-06 21:45 55.39800 37.94348 602 ft 62 kts 321°
2026-05-06 21:45 55.40390 37.93678 602 ft 136 kts 326°
2026-05-06 21:46 55.41324 37.92517 747 ft 188 kts 327°
2026-05-06 21:46 55.42353 37.91250 2101 ft 179 kts 328°
2026-05-06 21:46 55.43389 37.90357 3229 ft 176 kts 350°
2026-05-06 21:46 55.44642 37.90209 4123 ft 194 kts
2026-05-06 21:47 55.46090 37.90118 4936 ft 229 kts 343°
2026-05-06 21:47 55.47757 37.89106 5275 ft 281 kts 335°
2026-05-06 21:47 55.49520 37.87692 5181 ft 273 kts 332°
2026-05-06 21:47 55.51180 37.86200 4959 ft 259 kts 331°
2026-05-06 21:48 55.52685 37.84675 4840 ft 245 kts 318°
2026-05-06 21:48 55.53780 37.82383 4868 ft 245 kts 295°
2026-05-06 21:48 55.54230 37.79508 5138 ft 250 kts 267°
2026-05-06 21:48 55.53945 37.76676 6599 ft 240 kts 249°
2026-05-06 21:49 55.53194 37.73986 6898 ft 251 kts 241°
2026-05-06 21:49 55.52288 37.71435 6675 ft 240 kts 238°
2026-05-06 21:49 55.51380 37.68999 6593 ft 236 kts 238°
2026-05-06 21:49 55.50484 37.66560 6580 ft 239 kts 238°
2026-05-06 21:50 55.49370 37.64373 6545 ft 242 kts 218°
2026-05-06 21:50 55.47859 37.63077 6685 ft 251 kts 194°
2026-05-06 21:50 55.46164 37.63010 7997 ft 250 kts 175°
2026-05-06 21:50 55.44414 37.63744 8800 ft 269 kts 166°
2026-05-06 21:51 55.42657 37.64838 9968 ft 275 kts 161°
2026-05-06 21:51 55.40948 37.66347 10845 ft 291 kts 152°
2026-05-06 21:51 55.39166 37.68402 11366 ft 322 kts 148°
2026-05-06 21:51 55.37289 37.70726 11913 ft 335 kts 148°
2026-05-06 21:52 55.35404 37.73071 11847 ft 334 kts 148°
2026-05-06 21:52 55.33511 37.75409 11806 ft 329 kts 148°
2026-05-06 21:52 55.31620 37.77714 11810 ft 329 kts 148°
2026-05-06 21:52 55.29776 37.80008 11826 ft 331 kts 147°
2026-05-06 21:53 55.27859 37.82256 11859 ft 330 kts 154°
2026-05-06 21:53 55.25785 37.83935 12098 ft 337 kts 166°
2026-05-06 21:53 55.23591 37.84966 13607 ft 328 kts 170°
2026-05-06 21:53 55.21333 37.85915 14188 ft 341 kts 170°
2026-05-06 21:54 55.19050 37.86876 14119 ft 339 kts 170°
2026-05-06 21:54 55.16764 37.87854 14119 ft 335 kts 170°
2026-05-06 21:54 55.14505 37.88831 14156 ft 335 kts 169°
2026-05-06 21:54 55.12236 37.89783 14176 ft 335 kts 172°
2026-05-06 21:55 55.09929 37.90322 14204 ft 334 kts 181°
2026-05-06 21:55 55.07640 37.90155 14226 ft 330 kts 190°
2026-05-06 21:55 55.05375 37.89650 14273 ft 331 kts 191°
2026-05-06 21:55 55.03095 37.89103 14284 ft 331 kts 191°
2026-05-06 21:56 55.00778 37.88820 14270 ft 334 kts 182°
2026-05-06 21:56 54.98442 37.89259 14544 ft 348 kts 169°
2026-05-06 21:56 54.96189 37.90365 16019 ft 340 kts 166°
2026-05-06 21:56 54.93879 37.91627 16801 ft 355 kts 166°
2026-05-06 21:57 54.91555 37.92930 17999 ft 354 kts 166°
2026-05-06 21:57 54.89216 37.94235 18958 ft 360 kts 166°
2026-05-06 21:57 54.86819 37.95558 19231 ft 365 kts 166°
2026-05-06 21:57 54.84401 37.96888 19162 ft 360 kts 166°
2026-05-06 21:58 54.81972 37.98135 19154 ft 380 kts 167°
2026-05-06 21:58 54.79328 37.99441 19430 ft 406 kts 166°
2026-05-06 21:58 54.76542 38.00867 19676 ft 432 kts 166°
2026-05-06 21:58 54.73627 38.02405 20423 ft 444 kts 165°
2026-05-06 21:59 54.70729 38.03972 21513 ft 446 kts 165°
2026-05-06 21:59 54.67774 38.05590 22562 ft 450 kts 165°
2026-05-06 21:59 54.64744 38.07157 23485 ft 455 kts 166°
2026-05-06 21:59 54.61724 38.08700 24467 ft 460 kts 165°
2026-05-06 22:00 54.58644 38.10317 25387 ft 467 kts 165°
2026-05-06 22:00 54.55556 38.11987 26355 ft 472 kts 164°
2026-05-06 22:00 54.52420 38.13714 27389 ft 476 kts 163°
2026-05-06 22:00 54.49240 38.15410 28326 ft 481 kts 165°
2026-05-06 22:01 54.46031 38.17038 29401 ft 483 kts 164°
2026-05-06 22:01 54.42875 38.18677 30859 ft 477 kts 163°
2026-05-06 22:01 54.39741 38.20358 32193 ft 472 kts 163°
2026-05-06 22:01 54.36649 38.22050 33456 ft 466 kts 162°
2026-05-06 22:02 54.33574 38.23666 34464 ft 465 kts 164°
2026-05-06 22:02 54.30465 38.25102 34378 ft 464 kts 166°
2026-05-06 22:02 54.24276 38.27689 34432 ft 454 kts 166°
2026-05-06 22:03 54.18124 38.30250 34435 ft 460 kts 166°
2026-05-06 22:03 54.11921 38.32849 34452 ft 462 kts 166°
2026-05-06 22:04 54.05689 38.35470 34468 ft 461 kts 165°
2026-05-06 22:04 53.99452 38.38099 34476 ft 461 kts 165°
2026-05-06 22:05 53.93234 38.40722 34490 ft 462 kts 165°
2026-05-06 22:05 53.87053 38.43335 34503 ft 461 kts 165°
2026-05-06 22:06 53.80848 38.45952 34521 ft 461 kts 165°
2026-05-06 22:06 53.74627 38.48708 34521 ft 462 kts 165°
2026-05-06 22:07 53.68335 38.51046 34537 ft 463 kts 168°
2026-05-06 22:07 53.62044 38.53073 34560 ft 464 kts 168°
2026-05-06 22:08 53.55715 38.55092 34575 ft 463 kts 168°
2026-05-06 22:08 53.49408 38.57114 34583 ft 464 kts 169°
2026-05-06 22:09 53.43069 38.59149 34596 ft 464 kts 169°
2026-05-06 22:09 53.36769 38.61168 34604 ft 464 kts 169°
2026-05-06 22:10 53.30442 38.63197 34618 ft 460 kts 169°
2026-05-06 22:10 53.27375 38.64185 34854 ft 442 kts 168°
2026-05-06 22:10 53.24414 38.65146 35062 ft 425 kts 169°
2026-05-06 22:11 53.18621 38.67038 35073 ft 435 kts 169°
2026-05-06 22:11 53.12534 38.68996 35136 ft 453 kts 169°
2026-05-06 22:12 53.06218 38.71009 35070 ft 469 kts 169°
2026-05-06 22:12 52.99828 38.73036 35056 ft 467 kts 169°
2026-05-06 22:13 52.93475 38.75072 35038 ft 465 kts 169°
2026-05-06 22:13 52.87133 38.77111 35081 ft 466 kts 169°
2026-05-06 22:14 52.80786 38.79108 35066 ft 466 kts 169°
2026-05-06 22:14 52.74438 38.81085 35040 ft 466 kts 169°
2026-05-06 22:15 52.68074 38.83070 35073 ft 466 kts 169°
2026-05-06 22:15 52.61726 38.85052 35074 ft 466 kts 169°
2026-05-06 22:16 52.55354 38.87038 35050 ft 465 kts 169°
2026-05-06 22:16 52.48994 38.89019 35086 ft 466 kts 169°
2026-05-06 22:17 52.42640 38.91064 35032 ft 467 kts 165°
2026-05-06 22:17 52.36577 38.94764 35061 ft 468 kts 152°
2026-05-06 22:18 52.31036 39.00399 35093 ft 468 kts 145°
2026-05-06 22:18 52.25695 39.06368 35062 ft 467 kts 145°
2026-05-06 22:19 52.20278 39.12271 35047 ft 468 kts 146°
2026-05-06 22:19 52.14809 39.18170 35084 ft 469 kts 145°
2026-05-06 22:20 52.09395 39.24036 35022 ft 468 kts 148°
2026-05-06 22:20 52.03837 39.29569 35074 ft 469 kts 147°
2026-05-06 22:21 51.98317 39.35252 35065 ft 469 kts 146°
2026-05-06 22:21 51.92812 39.41036 35031 ft 468 kts 146°
2026-05-06 22:22 51.87383 39.46793 35064 ft 468 kts 145°
2026-05-06 22:22 51.81906 39.52621 35054 ft 468 kts 145°
2026-05-06 22:23 51.76477 39.58382 35030 ft 468 kts 146°
2026-05-06 22:23 51.70689 39.63291 35016 ft 470 kts 157°
2026-05-06 22:24 51.64558 39.66813 35074 ft 470 kts 160°
2026-05-06 22:24 51.58349 39.70131 35062 ft 471 kts 160°
2026-05-06 22:25 51.52114 39.73459 35046 ft 470 kts 160°
2026-05-06 22:25 51.45901 39.76782 35041 ft 471 kts 160°
2026-05-06 22:26 51.39706 39.80102 35077 ft 472 kts 160°
2026-05-06 22:26 51.33498 39.83430 35044 ft 470 kts 160°
2026-05-06 22:27 51.27314 39.86745 35060 ft 469 kts 160°
2026-05-06 22:27 51.21126 39.90068 35070 ft 470 kts 160°
2026-05-06 22:28 51.14960 39.93380 35048 ft 470 kts 160°
2026-05-06 22:28 51.08726 39.96690 35049 ft 471 kts 161°
2026-05-06 22:29 51.02469 39.99832 35070 ft 473 kts 161°
2026-05-06 22:29 50.96278 40.03093 35039 ft 471 kts 160°
2026-05-06 22:30 50.90064 40.06470 35033 ft 470 kts 159°
2026-05-06 22:30 50.83873 40.09744 35024 ft 470 kts 162°
2026-05-06 22:31 50.77623 40.12707 35055 ft 471 kts 161°
2026-05-06 22:31 50.71387 40.15817 35056 ft 471 kts 160°
2026-05-06 22:32 50.65155 40.19018 35022 ft 470 kts 160°
2026-05-06 22:32 50.58929 40.22252 35034 ft 471 kts 160°
2026-05-06 22:33 50.52721 40.25487 35059 ft 471 kts 159°
2026-05-06 22:33 50.46513 40.28721 35033 ft 470 kts 159°
2026-05-06 22:34 50.40311 40.31955 35025 ft 470 kts 159°
2026-05-06 22:34 50.34106 40.35194 35047 ft 471 kts 159°
2026-05-06 22:35 50.27897 40.38432 35060 ft 471 kts 159°
2026-05-06 22:35 50.21701 40.41661 35034 ft 471 kts 159°
2026-05-06 22:36 50.15506 40.44896 35031 ft 471 kts 159°
2026-05-06 22:36 50.09327 40.48119 35068 ft 470 kts 159°
2026-05-06 22:37 50.03098 40.51227 35016 ft 469 kts 160°
2026-05-06 22:37 49.96825 40.54165 35064 ft 470 kts 160°
2026-05-06 22:38 49.90586 40.57234 35067 ft 470 kts 159°
2026-05-06 22:38 49.84415 40.60352 35038 ft 469 kts 159°
2026-05-06 22:39 49.78218 40.63505 35030 ft 470 kts 158°
2026-05-06 22:39 49.72023 40.66669 35035 ft 470 kts 159°
2026-05-06 22:40 49.65735 40.69606 35015 ft 472 kts 165°
2026-05-06 22:40 49.59192 40.70626 35026 ft 477 kts 177°
2026-05-06 22:41 49.49257 40.70343 35053 ft 478 kts 179°
2026-05-06 22:42 49.42620 40.70119 35031 ft 477 kts 179°
2026-05-06 22:42 49.35974 40.69891 35025 ft 478 kts 179°
2026-05-06 22:43 49.29345 40.69509 35062 ft 477 kts 179°
2026-05-06 22:43 49.22718 40.69265 35049 ft 477 kts 178°
2026-05-06 22:44 49.16085 40.69115 35034 ft 477 kts 178°
2026-05-06 22:44 49.09492 40.69004 35031 ft 477 kts 178°
2026-05-06 22:45 49.02858 40.68895 35025 ft 477 kts 178°
2026-05-06 22:45 48.96179 40.68782 35016 ft 477 kts 178°
2026-05-06 22:46 48.89544 40.68049 35002 ft 479 kts 186°
2026-05-06 22:46 48.82996 40.66272 35053 ft 481 kts 188°
2026-05-06 22:47 48.76443 40.64330 35037 ft 481 kts 188°
2026-05-06 22:47 48.69868 40.62403 35021 ft 480 kts 188°
2026-05-06 22:48 48.63327 40.60495 35018 ft 480 kts 188°
2026-05-06 22:48 48.56806 40.58602 35015 ft 480 kts 188°
2026-05-06 22:49 48.50233 40.56695 35011 ft 479 kts 188°
2026-05-06 22:49 48.43689 40.54780 34999 ft 480 kts 189°
2026-05-06 22:50 48.37212 40.52724 35001 ft 479 kts 188°
2026-05-06 22:50 48.30647 40.50784 34997 ft 479 kts 188°
2026-05-06 22:51 48.24112 40.48945 34991 ft 479 kts 187°
2026-05-06 22:51 48.17578 40.47146 34988 ft 479 kts 187°
2026-05-06 22:52 48.11039 40.45354 34983 ft 478 kts 187°
2026-05-06 22:52 48.04493 40.43565 34978 ft 478 kts 187°
2026-05-06 22:53 47.97966 40.41778 34973 ft 478 kts 187°
2026-05-06 22:53 47.91426 40.39995 34948 ft 478 kts 187°
2026-05-06 22:54 47.84924 40.38232 34977 ft 478 kts 186°
2026-05-06 22:54 47.78344 40.37365 34973 ft 474 kts 176°
2026-05-06 22:55 47.71795 40.37883 34954 ft 471 kts 172°
2026-05-06 22:55 47.65249 40.38639 34972 ft 472 kts 173°
2026-05-06 22:56 47.58715 40.39364 34991 ft 472 kts 173°
2026-05-06 22:56 47.52196 40.40072 35029 ft 471 kts 173°
2026-05-06 22:57 47.45652 40.40770 35069 ft 472 kts 173°
2026-05-06 22:57 47.39106 40.41465 35054 ft 472 kts 173°
2026-05-06 22:58 47.32577 40.42153 35035 ft 472 kts 173°
2026-05-06 22:58 47.26001 40.42851 35079 ft 473 kts 173°
2026-05-06 22:59 47.19451 40.43546 35094 ft 473 kts 173°
2026-05-06 22:59 47.12895 40.44241 35057 ft 472 kts 173°
2026-05-06 23:00 47.06320 40.44386 35056 ft 474 kts 178°
2026-05-06 23:00 46.99709 40.44350 35060 ft 475 kts 177°
2026-05-06 23:01 46.93139 40.44433 35050 ft 474 kts 176°
2026-05-06 23:01 46.86531 40.44583 35040 ft 475 kts 176°
2026-05-06 23:02 46.79934 40.44750 35074 ft 476 kts 177°
2026-05-06 23:02 46.73304 40.44922 35087 ft 475 kts 177°
2026-05-06 23:03 46.66723 40.45093 35083 ft 475 kts 177°
2026-05-06 23:03 46.60112 40.45267 35094 ft 475 kts 177°
2026-05-06 23:04 46.53526 40.45439 35049 ft 475 kts 177°
2026-05-06 23:04 46.46923 40.45615 35075 ft 475 kts 177°
2026-05-06 23:05 46.40326 40.45790 35094 ft 475 kts 177°
2026-05-06 23:05 46.33717 40.45245 35042 ft 478 kts 188°
2026-05-06 23:06 46.27208 40.43070 35103 ft 481 kts 193°
2026-05-06 23:06 46.20725 40.40590 35063 ft 481 kts 193°
2026-05-06 23:07 46.14309 40.38140 35052 ft 480 kts 193°
2026-05-06 23:07 46.07850 40.35692 35054 ft 480 kts 193°
2026-05-06 23:08 46.01415 40.33260 35063 ft 478 kts 193°
2026-05-06 23:08 45.94992 40.30833 35055 ft 479 kts 193°
2026-05-06 23:09 45.88513 40.28389 35086 ft 480 kts 193°
2026-05-06 23:09 45.82086 40.25966 35097 ft 480 kts 193°
2026-05-06 23:10 45.75674 40.23122 35047 ft 482 kts 200°
2026-05-06 23:10 45.69602 40.19183 35087 ft 483 kts 204°
2026-05-06 23:11 45.63543 40.14938 35093 ft 484 kts 205°
2026-05-06 23:11 45.57537 40.10737 35061 ft 483 kts 205°
2026-05-06 23:12 45.51505 40.06534 35071 ft 483 kts 205°
2026-05-06 23:12 45.45393 40.02513 35047 ft 482 kts 199°
2026-05-06 23:13 45.38973 40.00088 35091 ft 480 kts 187°
2026-05-06 23:13 45.32354 39.98967 35121 ft 480 kts 184°
2026-05-06 23:14 45.25697 39.97960 35085 ft 480 kts 184°
2026-05-06 23:14 45.19056 39.96903 35075 ft 479 kts 185°
2026-05-06 23:15 45.12463 39.95824 35083 ft 480 kts 185°
2026-05-06 23:15 45.05826 39.94729 35075 ft 480 kts 185°
2026-05-06 23:16 44.99207 39.93632 35081 ft 480 kts 185°
2026-05-06 23:16 44.92562 39.92529 35079 ft 480 kts 185°
2026-05-06 23:17 44.85950 39.91296 35077 ft 481 kts 186°
2026-05-06 23:17 44.79313 39.90074 34847 ft 482 kts 185°
2026-05-06 23:17 44.76000 39.89517 34518 ft 480 kts 185°
2026-05-06 23:18 44.72660 39.88977 34157 ft 478 kts 185°
2026-05-06 23:18 44.69363 39.88460 33728 ft 479 kts 184°
2026-05-06 23:18 44.66061 39.87947 33247 ft 480 kts 184°
2026-05-06 23:18 44.62716 39.87432 32764 ft 480 kts 184°
2026-05-06 23:19 44.59415 39.86923 32266 ft 481 kts 184°
2026-05-06 23:19 44.56102 39.86413 31776 ft 482 kts 184°
2026-05-06 23:19 44.52742 39.85896 31251 ft 483 kts 184°
2026-05-06 23:19 44.49438 39.85389 30702 ft 484 kts 184°
2026-05-06 23:20 44.46052 39.84867 30069 ft 485 kts 184°
2026-05-06 23:20 44.42704 39.84354 29370 ft 487 kts 184°
2026-05-06 23:20 44.39320 39.84059 28645 ft 487 kts 179°
2026-05-06 23:20 44.35926 39.84262 27887 ft 488 kts 172°
2026-05-06 23:21 44.32611 39.84996 27105 ft 489 kts 166°
2026-05-06 23:21 44.29300 39.86189 26297 ft 490 kts 162°
2026-05-06 23:21 44.26031 39.87530 25496 ft 492 kts 161°
2026-05-06 23:21 44.22777 39.88892 24722 ft 492 kts 161°
2026-05-06 23:22 44.19534 39.90235 24288 ft 485 kts 162°
2026-05-06 23:22 44.16282 39.91562 23727 ft 482 kts 162°
2026-05-06 23:22 44.13065 39.92862 23243 ft 477 kts 162°
2026-05-06 23:22 44.09919 39.94122 22738 ft 473 kts 162°
2026-05-06 23:23 44.06745 39.95389 22208 ft 470 kts 162°
2026-05-06 23:23 44.03638 39.96623 21679 ft 466 kts 162°
2026-05-06 23:23 44.00507 39.97863 21144 ft 463 kts 162°
2026-05-06 23:23 43.97440 39.99078 20633 ft 459 kts 162°
2026-05-06 23:24 43.94404 40.00246 20083 ft 455 kts 163°
2026-05-06 23:24 43.91343 40.01364 19533 ft 452 kts 163°
2026-05-06 23:24 43.88309 40.02499 18986 ft 447 kts 163°
2026-05-06 23:24 43.85327 40.03651 18412 ft 443 kts 162°
2026-05-06 23:25 43.82384 40.04818 17833 ft 439 kts 162°
2026-05-06 23:25 43.79468 40.05992 17189 ft 436 kts 162°
2026-05-06 23:25 43.76558 40.07173 16515 ft 433 kts 162°
2026-05-06 23:25 43.73695 40.08344 15860 ft 429 kts 163°
2026-05-06 23:26 43.70817 40.09131 15158 ft 426 kts 173°
2026-05-06 23:26 43.67861 40.09146 14413 ft 423 kts 186°
2026-05-06 23:26 43.65026 40.08240 13642 ft 419 kts 200°
2026-05-06 23:26 43.62368 40.06651 12852 ft 414 kts 205°
2026-05-06 23:27 43.59784 40.04933 11974 ft 411 kts 206°
2026-05-06 23:27 43.57303 40.03288 11687 ft 390 kts 206°
2026-05-06 23:27 43.54911 40.01716 11407 ft 367 kts 205°
2026-05-06 23:27 43.52677 40.00286 11051 ft 345 kts 205°
2026-05-06 23:28 43.50552 39.98957 10774 ft 324 kts 204°
2026-05-06 23:28 43.48548 39.97728 10516 ft 307 kts 204°
2026-05-06 23:28 43.46655 39.96585 10241 ft 293 kts 203°
2026-05-06 23:28 43.44795 39.95552 9701 ft 292 kts 200°
2026-05-06 23:29 43.42869 39.94627 9098 ft 290 kts 199°
2026-05-06 23:29 43.40976 39.93767 8583 ft 286 kts 198°
2026-05-06 23:29 43.39092 39.92920 8008 ft 284 kts 198°
2026-05-06 23:29 43.37250 39.92092 7691 ft 273 kts 198°
2026-05-06 23:30 43.35501 39.91305 7426 ft 262 kts 198°
2026-05-06 23:30 43.33798 39.90539 7154 ft 253 kts 198°
2026-05-06 23:30 43.32152 39.89803 6894 ft 244 kts 198°
2026-05-06 23:30 43.30572 39.89101 6646 ft 236 kts 198°
2026-05-06 23:31 43.29016 39.88413 6292 ft 233 kts 198°
2026-05-06 23:31 43.27461 39.87725 5857 ft 233 kts 198°
2026-05-06 23:31 43.25965 39.87059 5619 ft 224 kts 198°
2026-05-06 23:31 43.24486 39.86401 5352 ft 221 kts 198°
2026-05-06 23:32 43.23027 39.85750 5106 ft 219 kts 198°
2026-05-06 23:32 43.21595 39.85108 4863 ft 218 kts 198°
2026-05-06 23:32 43.20118 39.84444 4367 ft 231 kts 198°
2026-05-06 23:32 43.18600 39.83754 4071 ft 229 kts 198°
2026-05-06 23:33 43.17099 39.83068 3921 ft 233 kts 198°
2026-05-06 23:33 43.15540 39.82356 5050 ft 240 kts 198°
2026-05-06 23:33 43.13942 39.81622 5630 ft 242 kts 199°
2026-05-06 23:33 43.12367 39.80902 5790 ft 235 kts 198°
2026-05-06 23:34 43.10813 39.80201 5873 ft 233 kts 198°
2026-05-06 23:34 43.09274 39.79510 5918 ft 234 kts 198°
2026-05-06 23:34 43.07731 39.78815 5935 ft 235 kts 198°
2026-05-06 23:34 43.06172 39.78110 5944 ft 236 kts 199°
2026-05-06 23:35 43.04805 39.76925 5920 ft 233 kts 238°
2026-05-06 23:35 43.04342 39.74852 6067 ft 235 kts 278°
2026-05-06 23:35 43.04741 39.72696 5931 ft 233 kts 292°
2026-05-06 23:35 43.05346 39.70639 5565 ft 236 kts 293°
2026-05-06 23:36 43.05946 39.68565 5293 ft 233 kts 291°
2026-05-06 23:36 43.06491 39.66504 5048 ft 230 kts 290°
2026-05-06 23:36 43.07006 39.64450 4810 ft 227 kts 289°
2026-05-06 23:36 43.07497 39.62418 4570 ft 224 kts 289°
2026-05-06 23:37 43.07973 39.60410 4324 ft 222 kts 289°
2026-05-06 23:37 43.08462 39.58406 4076 ft 221 kts 289°
2026-05-06 23:37 43.08942 39.56416 3844 ft 222 kts 289°
2026-05-06 23:37 43.09415 39.54395 3655 ft 223 kts 288°
2026-05-06 23:38 43.09873 39.52384 3488 ft 223 kts 288°
2026-05-06 23:38 43.10327 39.50365 3312 ft 222 kts 288°
2026-05-06 23:38 43.10779 39.48332 3115 ft 221 kts 289°
2026-05-06 23:38 43.11609 39.46621 2869 ft 218 kts 331°
2026-05-06 23:39 43.13049 39.46098 2808 ft 221 kts
2026-05-06 23:39 43.14579 39.46312 2618 ft 218 kts
2026-05-06 23:39 43.16073 39.46623 2406 ft 216 kts
2026-05-06 23:39 43.17562 39.46898 2182 ft 215 kts 10°
2026-05-06 23:40 43.18896 39.47742 1958 ft 214 kts 49°
2026-05-06 23:40 43.19604 39.49451 1983 ft 204 kts 72°
2026-05-06 23:40 43.19973 39.51286 1867 ft 198 kts 77°
2026-05-06 23:40 43.20289 39.53062 1824 ft 188 kts 75°
2026-05-06 23:41 43.20627 39.54764 1755 ft 179 kts 74°
2026-05-06 23:41 43.20967 39.56368 1669 ft 171 kts 73°
2026-05-06 23:41 43.21303 39.57899 1607 ft 164 kts 73°
2026-05-06 23:41 43.21630 39.59356 1572 ft 158 kts 72°
2026-05-06 23:42 43.21975 39.60876 1894 ft 176 kts 72°
2026-05-06 23:42 43.22335 39.62455 1991 ft 174 kts 72°
2026-05-06 23:42 43.22690 39.64003 1867 ft 167 kts 72°
2026-05-06 23:42 43.23020 39.65497 1879 ft 159 kts 74°
2026-05-06 23:43 43.23318 39.66925 1890 ft 156 kts 75°
2026-05-06 23:43 43.23573 39.68378 1902 ft 156 kts 78°
2026-05-06 23:43 43.23761 39.69839 1904 ft 156 kts 82°
2026-05-06 23:43 43.23856 39.71319 1861 ft 157 kts 95°
2026-05-06 23:44 43.23412 39.72654 1926 ft 157 kts 136°